This is the latest recevied weather packets stored in our database for station/object SP3VBV-2. If no packets are shown the sender has not sent any weather packets the latest 10 day(s).
| Time | Temp. | Humidity | Pressure | Rain* | Wind** | Luminosity | Snow |
|---|---|---|---|---|---|---|---|
| 1778245330 | 11.67° C | 84% | 1018.6 hPa | - | - | - | - |
| 1778244733 | 11.67° C | 84% | 1018.6 hPa | - | - | - | - |
| 1778244133 | 11.67° C | 88% | 1018.6 hPa | - | - | - | - |
| 1778243533 | 11.67° C | 87% | 1018.5 hPa | - | - | - | - |
| 1778242931 | 11.67° C | 86% | 1018.5 hPa | - | - | - | - |
| 1778242336 | 11.67° C | 87% | 1018.5 hPa | - | - | - | - |
| 1778241735 | 11.67° C | 87% | 1018.5 hPa | - | - | - | - |
| 1778241134 | 11.67° C | 88% | 1018.4 hPa | - | - | - | - |
| 1778240530 | 11.67° C | 87% | 1018.5 hPa | - | - | - | - |
| 1778239948 | 11.67° C | 87% | 1018.4 hPa | - | - | - | - |
| 1778239330 | 11.67° C | 85% | 1018.4 hPa | - | - | - | - |
| 1778238730 | 11.67° C | 86% | 1018.4 hPa | - | - | - | - |
| 1778238130 | 11.11° C | 85% | 1018.4 hPa | - | - | - | - |
| 1778237530 | 11.11° C | 87% | 1018.4 hPa | - | - | - | - |
| 1778236930 | 11.11° C | 90% | 1018.2 hPa | - | - | - | - |
| 1778236330 | 11.11° C | 92% | 1018.3 hPa | - | - | - | - |
| 1778235137 | 11.11° C | 89% | 1018.4 hPa | - | - | - | - |
| 1778233929 | 10.56° C | 92% | 1018.3 hPa | - | - | - | - |
| 1778233329 | 10.56° C | 91% | 1018.4 hPa | - | - | - | - |
| 1778232729 | 10.56° C | 92% | 1018.3 hPa | - | - | - | - |
| 1778232129 | 10.56° C | 95% | 1018.3 hPa | - | - | - | - |
| 1778231529 | 10.56° C | 92% | 1018.2 hPa | - | - | - | - |
| 1778230929 | 10.56° C | 90% | 1018.3 hPa | - | - | - | - |
| 1778230331 | 10° C | 97% | 1018.2 hPa | - | - | - | - |
| 1778229729 | 10.56° C | 98% | 1018.1 hPa | - | - | - | - |
* Rain since midnight (hover to see other rain measurements)
** Current wind speed in m/s (hover to see current wind gust speed)